When you browse on this site, cookies collect data to enhance your experience and personalize the content and advertising you see.
Visit our Privacy Policy to learn more. By continuing to use the site, you agree to this use of cookies and data.
  • In Schweiz
  • Länderverzeichnis
  • Für 7 Tage
  • Wassertemperatur
  • Wetterkarte
  • Widgets
  • user-avatar
    Anmelden

    Stündliche Wetter Prutz

    Heute, 21 August, Mittwoch

    Zeit Temperatur Niederschläge Wind Luftdruck Luftfeuchtigkeit
    00:00 +9°C° 2.1 mm 2 m/S 639 mmHg 97%
    01:00 +9°C° 2.1 mm 2 m/S 639 mmHg 97%
    02:00 +9°C° 0.8 mm 2 m/S 639 mmHg 97%
    03:00 +9°C° 0.8 mm 1 m/S 639 mmHg 96%
    04:00 +9°C° 0.8 mm 1 m/S 639 mmHg 96%
    05:00 +9°C° 0.5 mm 1 m/S 639 mmHg 95%
    06:00 +10°C° 0.5 mm 1 m/S 639 mmHg 95%
    07:00 +10°C° 0.5 mm 1 m/S 639 mmHg 94%
    08:00 +11°C° 0.1 mm 1 m/S 639 mmHg 91%
    09:00 +12°C° 0.1 mm 1 m/S 640 mmHg 87%
    10:00 +14°C° 0.1 mm 1 m/S 640 mmHg 84%
    11:00 +15°C° 0.2 mm 1 m/S 640 mmHg 80%
    12:00 +16°C° 0.2 mm 1 m/S 640 mmHg 76%
    13:00 +17°C° 0.2 mm 2 m/S 640 mmHg 72%
    14:00 +17°C° 0.4 mm 2 m/S 640 mmHg 73%
    15:00 +17°C° 0.4 mm 2 m/S 640 mmHg 74%
    16:00 +17°C° 0.4 mm 2 m/S 640 mmHg 75%
    17:00 +16°C° 0.4 mm 1 m/S 640 mmHg 81%
    18:00 +14°C° 0.4 mm 1 m/S 639 mmHg 87%
    19:00 +13°C° 0.4 mm 1 m/S 639 mmHg 92%
    20:00 +13°C° 0.2 mm 1 m/S 639 mmHg 93%
    21:00 +12°C° 0.2 mm 1 m/S 639 mmHg 93%
    22:00 +11°C° 0.2 mm 1 m/S 639 mmHg 93%
    23:00 +12°C° 0 mm 1 m/S 639 mmHg 92%

    Morgen, 22 August, Donnerstag

    Zeit Temperatur Niederschläge Wind Luftdruck Luftfeuchtigkeit
    00:00 +12°C° 0 mm 1 m/S 639 mmHg 91%
    01:00 +12°C° 0 mm 1 m/S 639 mmHg 89%
    02:00 +12°C° 0 mm 1 m/S 638 mmHg 89%
    03:00 +12°C° 0 mm 1 m/S 638 mmHg 88%
    04:00 +12°C° 0 mm 1 m/S 638 mmHg 87%
    05:00 +13°C° 0 mm 1 m/S 638 mmHg 85%
    06:00 +14°C° 0 mm 1 m/S 639 mmHg 82%
    07:00 +14°C° 0 mm 0 m/S 640 mmHg 79%
    08:00 +18°C° 0.1 mm 1 m/S 640 mmHg 72%
    09:00 +19°C° 0.1 mm 1 m/S 641 mmHg 66%
    10:00 +21°C° 0.1 mm 1 m/S 641 mmHg 59%
    11:00 +21°C° 0.5 mm 1 m/S 641 mmHg 58%
    12:00 +22°C° 0.5 mm 1 m/S 641 mmHg 56%
    13:00 +21°C° 0.5 mm 2 m/S 641 mmHg 55%
    14:00 +21°C° 1.2 mm 2 m/S 641 mmHg 60%
    15:00 +21°C° 1.2 mm 1 m/S 641 mmHg 65%
    16:00 +20°C° 1.2 mm 1 m/S 640 mmHg 70%
    17:00 +19°C° 0.9 mm 1 m/S 640 mmHg 76%
    18:00 +18°C° 0.9 mm 1 m/S 640 mmHg 82%
    19:00 +15°C° 0.9 mm 1 m/S 639 mmHg 88%
    20:00 +14°C° 0.1 mm 1 m/S 639 mmHg 88%
    21:00 +13°C° 0.1 mm 1 m/S 639 mmHg 88%
    22:00 +12°C° 0.1 mm 0 m/S 639 mmHg 88%
    23:00 +12°C° 0 mm 1 m/S 639 mmHg 88%

    übermorgen, 23 August, Freitag

    Zeit Temperatur Niederschläge Wind Luftdruck Luftfeuchtigkeit
    00:00 +12°C° 0 mm 1 m/S 639 mmHg 87%
    01:00 +12°C° 0 mm 1 m/S 639 mmHg 87%
    02:00 +12°C° 0 mm 1 m/S 639 mmHg 86%
    03:00 +12°C° 0 mm 1 m/S 638 mmHg 85%
    04:00 +11°C° 0 mm 1 m/S 638 mmHg 85%
    05:00 +13°C° 0 mm 1 m/S 639 mmHg 83%
    06:00 +14°C° 0 mm 1 m/S 639 mmHg 81%
    07:00 +15°C° 0 mm 1 m/S 640 mmHg 79%
    08:00 +18°C° 0 mm 1 m/S 640 mmHg 72%
    09:00 +20°C° 0 mm 1 m/S 641 mmHg 64%
    10:00 +22°C° 0 mm 1 m/S 641 mmHg 56%
    11:00 +22°C° 0.5 mm 1 m/S 641 mmHg 55%
    12:00 +23°C° 0.5 mm 1 m/S 641 mmHg 54%
    13:00 +23°C° 0.5 mm 1 m/S 641 mmHg 53%
    14:00 +23°C° 1.2 mm 1 m/S 641 mmHg 58%
    15:00 +22°C° 1.2 mm 1 m/S 640 mmHg 64%
    16:00 +21°C° 1.2 mm 1 m/S 640 mmHg 69%
    17:00 +20°C° 1.2 mm 1 m/S 640 mmHg 75%
    18:00 +18°C° 1.2 mm 1 m/S 639 mmHg 81%
    19:00 +16°C° 1.2 mm 1 m/S 639 mmHg 87%
    20:00 +14°C° 0.5 mm 0 m/S 639 mmHg 88%
    21:00 +14°C° 0.5 mm 0 m/S 639 mmHg 88%
    22:00 +13°C° 0.5 mm 0 m/S 639 mmHg 88%
    23:00 +14°C° 0 mm 1 m/S 638 mmHg 87%

    24 August, Samstag

    Zeit Temperatur Niederschläge Wind Luftdruck Luftfeuchtigkeit
    00:00 +13°C° 0 mm 1 m/S 638 mmHg 87%
    01:00 +13°C° 0 mm 1 m/S 638 mmHg 86%
    02:00 +12°C° 0 mm 1 m/S 637 mmHg 86%
    03:00 +12°C° 0 mm 1 m/S 637 mmHg 85%
    04:00 +12°C° 0 mm 1 m/S 637 mmHg 85%
    05:00 +13°C° 0 mm 1 m/S 638 mmHg 83%
    06:00 +14°C° 0 mm 1 m/S 638 mmHg 81%
    07:00 +15°C° 0 mm 1 m/S 638 mmHg 79%
    08:00 +18°C° 0 mm 1 m/S 639 mmHg 70%
    09:00 +20°C° 0 mm 1 m/S 640 mmHg 62%
    10:00 +22°C° 0 mm 1 m/S 640 mmHg 53%
    11:00 +23°C° 0.4 mm 1 m/S 640 mmHg 52%
    12:00 +23°C° 0.4 mm 1 m/S 640 mmHg 51%
    13:00 +24°C° 0.4 mm 1 m/S 640 mmHg 50%
    14:00 +23°C° 1.1 mm 1 m/S 640 mmHg 56%
    15:00 +22°C° 1.1 mm 1 m/S 639 mmHg 63%
    16:00 +21°C° 1.1 mm 1 m/S 639 mmHg 70%
    17:00 +20°C° 0.9 mm 1 m/S 638 mmHg 75%
    18:00 +19°C° 0.9 mm 1 m/S 638 mmHg 81%
    19:00 +15°C° 0.9 mm 0 m/S 637 mmHg 86%
    20:00 +15°C° 0.4 mm 0 m/S 637 mmHg 86%
    21:00 +14°C° 0.4 mm 0 m/S 638 mmHg 86%
    22:00 +14°C° 0.4 mm 0 m/S 638 mmHg 86%
    23:00 +14°C° 0 mm 1 m/S 637 mmHg 86%

    25 August, Sonntag

    Zeit Temperatur Niederschläge Wind Luftdruck Luftfeuchtigkeit
    00:00 +14°C° 0 mm 1 m/S 637 mmHg 86%
    01:00 +13°C° 0 mm 1 m/S 637 mmHg 86%
    02:00 +13°C° 0 mm 1 m/S 636 mmHg 86%
    03:00 +12°C° 0 mm 1 m/S 636 mmHg 86%
    04:00 +12°C° 0 mm 1 m/S 636 mmHg 87%
    05:00 +12°C° 0 mm 0 m/S 637 mmHg 84%
    06:00 +14°C° 0 mm 0 m/S 637 mmHg 81%
    07:00 +15°C° 0 mm 0 m/S 638 mmHg 78%
    08:00 +17°C° 0.1 mm 0 m/S 638 mmHg 72%
    09:00 +20°C° 0.1 mm 1 m/S 639 mmHg 67%
    10:00 +22°C° 0.1 mm 1 m/S 639 mmHg 61%
    11:00 +22°C° 1.3 mm 1 m/S 639 mmHg 62%
    12:00 +22°C° 1.3 mm 1 m/S 639 mmHg 63%
    13:00 +21°C° 1.3 mm 2 m/S 639 mmHg 64%
    14:00 +21°C° 1.5 mm 2 m/S 639 mmHg 67%
    15:00 +21°C° 1.5 mm 2 m/S 638 mmHg 69%
    16:00 +20°C° 1.5 mm 2 m/S 638 mmHg 72%
    17:00 +19°C° 0.5 mm 1 m/S 638 mmHg 78%
    18:00 +18°C° 0.5 mm 1 m/S 638 mmHg 83%
    19:00 +15°C° 0.5 mm 1 m/S 637 mmHg 89%
    20:00 +14°C° 0 mm 1 m/S 637 mmHg 89%
    21:00 +14°C° 0 mm 1 m/S 637 mmHg 90%
    22:00 +12°C° 0 mm 0 m/S 637 mmHg 91%
    23:00 +11°C° 0 mm 0 m/S 637 mmHg 90%

    26 August, Montag

    Zeit Temperatur Niederschläge Wind Luftdruck Luftfeuchtigkeit
    00:00 +11°C° 0 mm 0 m/S 637 mmHg 90%
    01:00 +11°C° 0 mm 0 m/S 637 mmHg 90%
    02:00 +10°C° 0 mm 0 m/S 637 mmHg 89%
    03:00 +10°C° 0 mm 0 m/S 637 mmHg 89%
    04:00 +10°C° 0 mm 0 m/S 636 mmHg 89%
    05:00 +11°C° 0 mm 0 m/S 637 mmHg 86%
    06:00 +13°C° 0 mm 0 m/S 638 mmHg 83%
    07:00 +14°C° 0 mm 0 m/S 639 mmHg 80%
    08:00 +18°C° 0 mm 1 m/S 639 mmHg 69%
    09:00 +20°C° 0 mm 1 m/S 640 mmHg 59%
    10:00 +21°C° 0 mm 1 m/S 641 mmHg 49%
    11:00 +22°C° 0 mm 1 m/S 641 mmHg 44%
    12:00 +23°C° 0 mm 1 m/S 641 mmHg 39%
    13:00 +24°C° 0 mm 1 m/S 641 mmHg 34%
    14:00 +24°C° 0 mm 2 m/S 641 mmHg 35%
    15:00 +24°C° 0 mm 2 m/S 641 mmHg 36%
    16:00 +24°C° 0 mm 2 m/S 641 mmHg 37%
    17:00 +20°C° 0 mm 2 m/S 640 mmHg 51%
    18:00 +19°C° 0 mm 1 m/S 639 mmHg 64%
    19:00 +15°C° 0 mm 1 m/S 638 mmHg 77%
    20:00 +14°C° 0 mm 1 m/S 638 mmHg 81%
    21:00 +13°C° 0 mm 1 m/S 638 mmHg 84%
    22:00 +12°C° 0 mm 0 m/S 638 mmHg 88%
    23:00 +11°C° 0 mm 0 m/S 638 mmHg 87%
    Mehr zeigen